Время (UTC), дата Ветер
(°,м/с) 
Видим.   Явления Облачность Т
(°С)
Тd
(°С)
f(%) Тe
(°С)
Pmin
(гПа)
dP
(гПа)
Po
(мм)
O2
(г/м3)
Тmin Tmax R s Состояние
почвы
00 01.05.13 240 (ЮЗ) 10 км  {дождь}  8/0 средняя 
[Ac As]
+11 +6.2 72 +11  1014.2  -0.8  750  290           
03 01.05.13 270 (З) >10 км    3/0 верхняя 
[Cc]
+9.9 +6.9 82 +10  1015.5  -0.8  751  291  +9.7        сухая 
06 01.05.13 290 (З) >10 км    ясно 
+12.9 +4.8 58 +12  1015.6  0.3  751  288           
09 01.05.13 280 (З) 6-12{14}  >10 км    8/4 1000 м верхняя 
[Cu med, cong|Ci fib]
+15 -2.3 30 +14  1016.3  0.7  752  287           
12 01.05.13 270 (З) 6-11{13}  >10 км    8/4 1000 м верхняя 
[Cu med, cong|Ci fib]
+15.5 -3 28 +15  1016.7  0.4  752  287           
15 01.05.13 280 (З) 3{11}  >10 км    10/0 верхняя 
[Cs]
+14.6 -4 27 +15  1016.3  -0.4  752  288    +16       
18 01.05.13 260 (З) 10 км    3/1 600 м верхняя 
[Sc diur, vesp|Ci fib]
+11.9 -2.4 37 +13  1016.8  0.4  752  291           
21 01.05.13 290 (З) 10 км    ясно 
+10 -2.6 41 +11  1018.1  1.2  753  293           
00 02.05.13 280 (З) 10 км    ясно 
+7.8 -2 50 +9  1019.1  0.9  754  295           
03 02.05.13 280 (З) >10 км    ясно 
+7.5 -2.4 49 +7  1020.4  1.3  755  296  +6.4        сухая 
06 02.05.13 290 (З) >10 км    ясно 
+12.1 -1.1 40 +12  1021.3  755  292           
09 02.05.13 280 (З) 6-10{10}  >10 км    ясно 
+14.6 -5.8 24 +14  1020.9  -0.3  755  289           
12 02.05.13 270 (З) 6-11{13}  >10 км    3/3 600 м 
[Cu hum]
+16.4 -6.6 20 +16  1020.3  -0.4  755  288           
15 02.05.13 270 (З) 5-11{13}  >10 км    ясно 
+15.8 -8.4 18 +16  1020.6  0.2  755  288    +16.6       
18 02.05.13 290 (З) 2{10}  10 км    ясно 
+12.7 -6.4 26 +13  1022.3  1.5  756  292           
21 02.05.13 тихо ()   10 км    ясно 
+8.2 -4.1 42 +8  1023.6  1.1  757  297           
00 03.05.13 тихо ()   10 км    ясно 
+6.1 -4.5 47 +6  1023.9  0.2  757  299           
03 03.05.13 тихо ()   >10 км    ясно 
+9.3 -4.4 38 +9  1023.7  -0.1  757  295  +5.4        сухая 
06 03.05.13 240 (ЮЗ) >10 км    ясно 
+15.9 -5.3 23 +16  1022.3  -1  756  289           
09 03.05.13 250 (З) 5-12{12}  >10 км    3/0 верхняя 
[Ci fib]
+18.3 -5 20 +18  1019.7  -2.5  754  285           
12 03.05.13 260 (З) 4{13}  >10 км    8/0 верхняя 
[Cs]
+19.3 -5.3 18 +20  1017.3  -2.3  753  284           
15 03.05.13 270 (З) 3{10}  >10 км    10/0 средняя 
[As trans]
+17.4 -3.1 24 +18  1015.8  -1.5  752  285    +19.3       
18 03.05.13 260 (З) 10 км    4/0 средняя 
[As op]
+15 -2.4 30 +16  1015.9  752  287           
21 03.05.13 270 (З) 10 км    8/0 верхняя 
[Cs]
+12.8 -1.5 37 +13  1016.3  0.3  752  290           
00 04.05.13 010 (С) 10 км    3/0 средняя 
[Ac lent]
+10.9 -4.4 34 +11  1018.6  2.2  753  292           
03 04.05.13 340 (С) >10 км    9/0 верхняя 
[Cs]
+9.8 -7.1 30 +11  1020.9  2.2  755  294  +9.2        сухая 
06 04.05.13 010 (С) >10 км    10/0 верхняя 
[Cs]
+12.3 -9 22 +12  1022.1  1.3  756  292           
09 04.05.13 010 (С) >10 км    9/0 верхняя 
[Cs]
+14.6 -7 22 +15  1022.1  0.1  756  290           
12 04.05.13 270 (З) >10 км    10/0 верхняя 
[Cs]
+15.4 -8.9 18 +16  1021.7  -0.4  756  289           
15 04.05.13 140 (ЮВ) >10 км    10/0 средняя, верхняя 
[As op|Ci fib]
+15 -8.8 18 +16  1020.9  -0.9  755  289    +16.4       
18 04.05.13 140 (ЮВ) 10 км    8/0 средняя, верхняя 
[As op|Ci fib]
+11.9 -7.9 24 +13  1021.6  0.5  756  293           
21 04.05.13 110 (В) 10 км    3/0 верхняя 
[Ci fib]
+9.9 -7.3 29 +11  1021.6  0.1  756  295           
00 05.05.13 100 (В) 10 км    8/0 средняя, верхняя 
[As op|Ci fib]
+9.1 -6.1 34 +9  1020.9  -0.7  755  295           
03 05.05.13 130 (ЮВ) >10 км    10/0 средняя 
[As op]
+9.9 -5.3 34 +11  1020.2  -0.6  755  294  +8.9        сухая 
06 05.05.13 120 (ЮВ) 10 км  слаб. дождь  10/10 480 м 
[Ns]
+7.5 +4.3 80 +7  1019.2  -1.1  754  295  +7.5         
09 05.05.13 090 (В) 10 км  слаб. дождь  10/10 540 м 
[Ns]
+7.6 +6 90 +6  1016.9  -2.2  752  294           
12 05.05.13 130 (ЮВ) 2{10}  10 км  слаб. дождь  10/10 600 м 
[Ns]
+9.8 +8 89 +10  1015.4  -1.4  751  291           
15 05.05.13 100 (В) 10 км  {дождь}  10/3 600 м средняя 
[Sc|Ac As]
+11.2 +8.9 86 +11  1012.5  -2.8  749  288    +11.3     
18 05.05.13 060 (СВ) 10 км  {дождь}  8/4 600 м средняя 
[Sc|Ac cast]
+10.9 +9.4 90 +12  1009.7  -2.8  747  288           
21 05.05.13 120 (ЮВ) 10 км    8/3 600 м средняя 
[Sc|Ac cast]
+11.2 +9.7 90 +12  1006.7  -2.9  745  286           
00 06.05.13 тихо ()   10 км  слаб. дождь  10/10 600 м 
[Sc]
+12.2 +10.2 88 +14  1005.2  -1.4  744  285           
03 06.05.13 180 (Ю) >10 км  в посл. час гроза{ливн. осадки}  8/5 600 м кучево-дожд., средняя 
[Cb calv|Ac cast]
+12.6 +11.1 91 +16  1004.6  -0.6  743  284  +10.4    0.8    мокрая 
06 06.05.13 270 (З) 10 км  в посл. час дождь{гроза, ливн. осадки}  10/10 200 м 
[Frnb]
+13.6 +12.2 91 +18  1004.1  -0.4  743  283           
09 06.05.13 280 (З) 4{11}  10 км  {морось}  10/10 300 м 
[Frnb]
+13 +9.7 80 +14  1005.8  1.6  744  284           
12 06.05.13 280 (З) 4{13}  10 км  слаб. дождь{ливн. осадки}  10/10 600 м кучево-дожд. 
[Cb cap]
+10.8 +8.9 88 +10  1006.6  0.7  745  287           
15 06.05.13 280 (З) 4{12}  >10 км    6/3 300 м средняя 
[Sc diur, vesp|Ac trans]
+11.8 +4.6 61 +11  1007.2  0.7  745  287    +14.8     
18 06.05.13 280 (З) 4{10}  10 км    9/9 700 м 
[Sc]
+9.7 +5.3 74 +9  1008.5  1.1  746  289           
21 06.05.13 300 (СЗ) 10 км    9/1 600 м средняя 
[Sc|Ac As]
+7.8 +4.7 81 +7  1008.4  -0.2  746  291           
00 07.05.13 300 (СЗ) 4000 м  дождь  10/10 480 м 
[Ns]
+7.5 +6.1 91 +7  1009  0.5  746  292           
03 07.05.13 340 (С) 3{11}  10 км  слаб. дождь  10/10 450 м 
[Frnb|Ns]
+8.3 +6.1 86 +8  1012.6  3.6  749  292  +7    0.5    мокрая 
06 07.05.13 330 (СЗ) 3{10}  10 км  {дождь}  9/9 800 м 
[Sc]
+9.1 +4.4 72 +9  1016.1  3.5  752  292           
09 07.05.13 340 (С) 4{12}  >10 км    5/5 600 м 
[Cu hum]
+12.4 +3.4 54 +12  1018  753  290           
12 07.05.13 350 (С) 4{10}  >10 км    ясно 
+14.7 -2.5 30 +15  1018.9  754  288           
15 07.05.13 360 (С) 4{12}  >10 км    ясно 
+13.6 -2.8 32 +13  1020.3  1.3  755  290    +14.9       
18 07.05.13 330 (СЗ) 1{10}  10 км    ясно 
+10.3 -0.3 48 +11  1021.9  1.4  756  293           
21 07.05.13 010 (С) 10 км    ясно 
+7.3 -0.5 58 +8  1022.7  0.7  756  297           
00 08.05.13 350 (С) 10 км    ясно 
+5.5 -0.8 64 +6  1023.3  0.5  757  299           
03 08.05.13 290 (З) >10 км    4/0 верхняя 
[Cs]
+7.5 -0.4 57 +8  1023.1  0.1  757  297  +4.6        сухая 
06 08.05.13 260 (З) >10 км    5/0 верхняя 
[Ci fib]
+12.4 -1.6 38 +13  1022.2  -0.6  756  292           
09 08.05.13 310 (СЗ) >10 км    5/0 верхняя 
[Ci fib]
+15.1 -2.5 30 +15  1020.2  -1.8  755  288           
12 08.05.13 270 (З) >10 км    ясно 
+17 -2.4 26 +17  1017.7  -2.4  753  286           
15 08.05.13 280 (З) >10 км    ясно 
+17.3 -2 27 +18  1015.8  -1.9  752  285    +17.5       
18 08.05.13 230 (ЮЗ) 10 км    ясно 
+14.1 +0.4 39 +15  1015.5  -0.5  751  288           
21 08.05.13 240 (ЮЗ) 10 км    ясно 
+13 +2.7 50 +14  1014.8  -0.7  751  288           
00 09.05.13 360 (С) 10 км    ясно 
+10.3 +3.4 62 +11  1016.2  1.2  752  291           
03 09.05.13 360 (С) >10 км    3/0 верхняя 
[Ci fib]
+11.3 +5 65 +12  1017.9  1.7  753  291  +9.4        влажная 
06 09.05.13 300 (СЗ) >10 км    ясно 
+15.4 +3.8 46 +16  1018.9  1.2  754  287           
09 09.05.13 350 (С) >10 км    3/3 1000 м 
[Cu hum]
+17.1 +0.6 33 +18  1018.9  0.1  754  286           
12 09.05.13 340 (С) >10 км    ясно 
+18.2 -2.9 24 +19  1018.5  -0.3  754  285           
15 09.05.13 320 (СЗ) >10 км    10/0 верхняя 
[Ci fib]
+17.9 -4.9 21 +18  1018.2  -0.4  753  285    +18.5       
18 09.05.13 030 (СВ) 10 км    ясно 
+13.9 -3 31 +15  1019.3  0.9  754  289           
21 09.05.13 140 (ЮВ) 10 км    3/0 верхняя 
[Ci fib]
+10.8 -2.4 40 +12  1019.6  0.2  754  293           
00 10.05.13 170 (Ю) 10 км    9/6 600 м средняя, верхняя 
[Sc|Ac As|Ci fib]
+9.5 -1.2 47 +11  1019.1  -0.6  754  294           
03 10.05.13 170 (Ю) >10 км    8/0 средняя, верхняя 
[Ac lent|Cc]
+11 +1.2 51 +12  1018.1  -0.9  753  291  +8.7        сухая 
06 10.05.13 230 (ЮЗ) 10 км    10/0 средняя 
[As op]
+15 +1.5 40 +16  1016.7  -1.2  752  287           
09 10.05.13 190 (Ю) 10 км    8/6 600 м средняя, верхняя 
[Sc|Ac trans|Cc]
+20.1 +0.6 27 +20  1013.7  -2.7  750  281           
12 10.05.13 270 (З) 5-12{12}  >10 км    6/6 300 м 
[Sc diur, vesp]
+24.9 +5.3 28 +25  1010.1  -3.3  748  275           
15 10.05.13 270 (З) 4{12}  >10 км    8/3 600 м верхняя 
[Sc diur, vesp|Ci]
+25 +5.4 28 +25  1007.1  -3  745  274    +25.5       
18 10.05.13 050 (СВ) 5-11{13}  10 км    8/4 600 м верхняя 
[Sc|Ci fib]
+12.6 +7.6 72 +12  1009.4  1.8  747  286           
21 10.05.13 170 (Ю) 1{11}  10 км    8/0 верхняя 
[Ci fib]
+10.5 +6.9 78 +12  1008.4  -1.1  746  288           
00 11.05.13 170 (Ю) 10 км    10/0 средняя, верхняя 
[Ac lent|Ci fib]
+11.3 +9 86 +12  1006  -2.4  744  286           
03 11.05.13 020 (С) 10 км    10/0 средняя 
[Ac As]
+11.1 +7.8 80 +11  1006.4  0.4  744  287  +10.2        сухая 
06 11.05.13 030 (СВ) 10 км    9/9 500 м 
[Sc]
+11.9 +8.3 79 +12  1008.8  2.4  746  287           
09 11.05.13 360 (С) 10 км    9/9 600 м 
[Sc]
+12.9 +8.3 74 +13  1011.5  2.6  748  286           
12 11.05.13 060 (СВ) 10 км    10/9 750 м верхняя 
[Sc|Cc]
+13.2 +8 71 +13  1012.9  1.4  749  287           
15 11.05.13 060 (СВ) 10 км    9/5 1110 м средняя 
[Sc|As op]
+12.6 +7.3 70 +13  1013.4  0.5  750  288    +14.4       
18 11.05.13 100 (В) 10 км    3/3 600 м 
[Sc]
+9.7 +6.9 83 +11  1014.8  1.2  751  291           
21 11.05.13 140 (ЮВ) 10 км    3/0 верхняя 
[Cs]
+8.7 +6.4 85 +10  1014.9  0.1  751  292           
00 12.05.13 140 (ЮВ) 10 км    8/8 800 м 
[Sc]
+8.5 +6.3 86 +8  1014.8  -0.2  750  292           
03 12.05.13 120 (ЮВ) 4000 м  дождь  10/10 700 м 
[Frnb|Ns]
+8.1 +7.2 94 +7  1014.7  0.1  750  292  +8      мокрая 
06 12.05.13 140 (ЮВ) 4000 м  дождь  10/10 300 м 
[Frnb|Ns]
+8.6 +7.6 93 +7  1013.8  -0.8  750  292           
09 12.05.13 140 (ЮВ) 3{10}  10 км  {дождь}  10/8 300 м средняя 
[Frnb|Ac inh]
+10.8 +8.5 86 +10  1013.7  750  289           
12 12.05.13 120 (ЮВ) 10 км  {дождь}  10/4 300 м средняя, верхняя 
[Ac lent|Cs]
+12 +9.9 87 +13  1012.1  -1.6  749  287           
15 12.05.13 080 (В) >10 км  {дождь}  5/3 600 м средняя 
[Sc|Ac lent]
+12.3 +8.7 79 +12  1011.8  -0.2  748  287    +13.1     
18 12.05.13 080 (В) 10 км    ясно 
+10.1 +8.1 87 +11  1012.5  0.6  749  290           
21 12.05.13 080 (В) 10 км    ясно 
+8.7 +7.3 91 +10  1012.5  0.1  749  291           
00 13.05.13 010 (С) 10 км    ясно 
+7.2 +6.2 93 +8  1013.2  0.7  749  293           
03 13.05.13 030 (СВ) 0500 м  туман  10/10 450 м 
[St]
+7.7 +7 95 +8  1014.1  0.8  750  293  +6.6        влажная 
06 13.05.13 040 (СВ) 10 км  {туман}  10/10 480 м 
[St]
+11.6 +9.1 85 +12  1014.7  0.8  751  288           
09 13.05.13 350 (С) 10 км    10/10 600 м 
[St]
+14.2 +9.7 74 +16  1015.2  0.6  751  286           
12 13.05.13 330 (СЗ) >10 км    9/9 800 м 
[Sc]
+15.3 +9.7 69 +17  1015.3  0.2  751  285           
15 13.05.13 310 (СЗ) >10 км    4/4 600 м 
[Sc]
+14.8 +9.5 71 +16  1015.1  -0.2  751  285    +15.9       
18 13.05.13 280 (З) 10 км    ясно 
+12 +9.5 85 +13  1016  0.7  752  288           
21 13.05.13 тихо ()   10 км    ясно 
+10.1 +8.8 92 +10  1016.6  0.6  752  291           
00 14.05.13 тихо ()   10 км    ясно 
+8.2 +7.5 95 +8  1016.6  0.1  752  293           
03 14.05.13 100 (В) >10 км    3/0 верхняя 
[Ci fib]
+12.9 +10.9 88 +16  1016.7  0.4  752  287  +7.3        влажная 
06 14.05.13 150 (ЮВ) >10 км    9/0 верхняя 
[Ci fib]
+17.8 +10.3 61 +21  1016.4  0.1  752  283           
09 14.05.13 200 (Ю) >10 км    9/0 верхняя 
[Ci]
+21.2 +10.3 50 +23  1015.8  -0.4  752  279           
12 14.05.13 200 (Ю) >10 км    1/0 верхняя 
[Ci fib]
+23.7 +8.7 38 +24  1014.6  -1.1  751  277           
15 14.05.13 160 (Ю) >10 км    ясно 
+23.5 +8.6 39 +24  1013.4  -1.2  750  277    +24.7       
18 14.05.13 тихо ()   10 км    ясно 
+16.9 +10.7 67 +19  1014.5  0.8  751  283           
21 14.05.13 150 (ЮВ) 10 км    ясно 
+15.5 +9.7 68 +18  1014.1  -0.5  750  284           
00 15.05.13 140 (ЮВ) 10 км    5/0 верхняя 
[Ci fib]
+12.6 +8.6 77 +14  1014.7  0.5  751  288           
03 15.05.13 160 (Ю) >10 км    ясно 
+17 +9.4 61 +18  1014.7  0.2  751  283  +12.4        влажная 
06 15.05.13 тихо ()   >10 км    ясно 
+23.5 +12 48 +27  1015.2  0.8  751  277           
09 15.05.13 140 (ЮВ) >10 км    3/0 верхняя 
[Ci fib]
+27.1 +12.6 41 +32  1015.3  0.2  752  273           
12 15.05.13 140 (ЮВ) >10 км    4/4 1000 м 
[Cu med, cong]
+29.3 +7.7 26 +29  1014.5  -0.7  751  272           
15 15.05.13 150 (ЮВ) >10 км    3/3 1000 м 
[Cu med, cong]
+27.8 +10.1 33 +29  1014.3  -0.2  751  273    +29.6       
18 15.05.13 020 (С) 10 км    8/6 600 м верхняя 
[Cu med, cong|Ci sp]
+22 +12.3 54 +26  1015.7  1.1  752  278           
21 15.05.13 060 (СВ) 10 км    9/9 600 м 
[Sc diur, vesp]
+20.6 +9.7 50 +21  1016.8  752  280           
00 16.05.13 070 (В) 10 км    5/5 600 м 
[Sc diur, vesp]
+18.7 +10.7 60 +22  1016.5  -0.3  752  282           
03 16.05.13 050 (СВ) 10 км    9/8 600 м средняя 
[Sc diur, vesp|Ac trans]
+18.9 +13 69 +25  1017.2  0.7  753  281  +17.3        сухая 
06 16.05.13 110 (В) >10 км    8/3 1000 м средняя, верхняя 
[Cu hum|Ac lent|Ci sp]
+25 +11.2 42 +28  1017.4  0.5  753  276           
09 16.05.13 150 (ЮВ) >10 км    8/3 1000 м средняя, верхняя 
[Cu Sc|Ac lent|Ci sp]
+25.9 +12 42 +30  1017.3  753  275           
12 16.05.13 160 (Ю) >10 км    3/1 1000 м верхняя 
[Cu hum|Ci fib]
+28.6 +10.7 33 +31  1016  -1.2  752  272           
15 16.05.13 190 (Ю) >10 км    3/1 1000 м верхняя 
[Cu hum|Ci fib]
+27.2 +11.6 38 +30  1015.2  -0.8  752  273    +29.1       
18 16.05.13 030 (СВ) 10 км  зарница  8/8 600 м верхняя 
[Cu med, cong|Ci]
+22.8 +12.3 52 +27  1015.3  0.1  751  277           
21 16.05.13 350 (С) 10 км    9/9 600 м 
[Sc diur, vesp]
+20.1 +12.6 62 +25  1016  0.6  752  280           
00 17.05.13 280 (З) 10 км  слаб. дождь{гроза}  10/10 630 м 
[Ac As]
+18.5 +13 70 +24  1016.1  752  281           
03 17.05.13 280 (З) 10 км    9/5 600 м средняя 
[Sc|As op]
+18 +14.1 78 +26  1017.3  1.2  753  282  +17.5    0.3    влажная 
06 17.05.13 350 (С) 10 км  {дождь}  10/10 700 м 
[Sc]
+16.9 +14.1 84 +24  1018.4  1.1  754  283  +16.9         
09 17.05.13 020 (С) >10 км    5/1 1000 м верхняя 
[Cu hum|Ci fib]
+20.9 +11.7 56 +24  1018.9  0.6  754  280           
12 17.05.13 360 (С) 3{10}  >10 км    ясно 
+21 +5 35 +21  1019.4  0.5  754  281           
15 17.05.13 040 (СВ) >10 км    ясно 
+20.6 +4.3 34 +21  1019.3  0.1  754  282    +21.2       
18 17.05.13 030 (СВ) 10 км    ясно 
+16.8 +4.7 45 +18  1019.9  0.4  755  286           
21 17.05.13 040 (СВ) 10 км    ясно 
+12.9 +3.6 53 +14  1020.4  0.3  755  290           
00 18.05.13 350 (С) 10 км    ясно 
+11.4 +2.7 55 +13  1021  0.5  755  292           
03 18.05.13 050 (СВ) >10 км    ясно 
+12.5 +2.3 50 +13  1021.1  0.2  755  291  +10.5        сухая 
06 18.05.13 030 (СВ) >10 км    ясно 
+15.9 +0.4 35 +16  1021  755  288           
09 18.05.13 360 (С) >10 км    ясно 
+17.1 +0.3 32 +18  1019.6  -1.3  754  286           
12 18.05.13 350 (С) >10 км    ясно 
+18.5 -0.7 27 +19  1017.4  -2.1  753  284           
15 18.05.13 020 (С) >10 км    8/8 1000 м средняя, верхняя 
[Cu Sc|Ac trans|Ci sp]
+16.3 -1.4 30 +17  1017.3  -0.2  753  286    +19       
18 18.05.13 050 (СВ) 10 км    1/1 600 м 
[Sc]
+12.2 -1 40 +13  1018.3  0.9  753  291           
21 18.05.13 030 (СВ) 10 км    ясно 
+9 -3 43 +10  1019.8  1.3  754  295           
00 19.05.13 060 (СВ) 10 км    ясно 
+6.2 -3 52 +6  1021  755  298           
03 19.05.13 040 (СВ) >10 км    ясно 
+6.4 -2.9 51 +6  1022.2  1.1  756  298  +5.5        сухая 
06 19.05.13 360 (С) >10 км    ясно 
+9.5 -3.8 39 +10  1022.2  0.2  756  295           
09 19.05.13 010 (С) >10 км    ясно 
+13.4 -3.3 31 +13  1021.6  -0.4  756  291           
12 19.05.13 330 (СЗ) >10 км    ясно 
+15.9 -2.7 28 +17  1020.6  -0.9  755  288           
15 19.05.13 010 (С) >10 км    ясно 
+16.2 -2.4 28 +17  1019.8  -0.8  754  287    +16.6       
18 19.05.13 300 (СЗ) 10 км    1/0 верхняя 
[Ci fib]
+12.9 -1.3 37 +14  1019.8  0.1  754  290           
21 19.05.13 тихо ()   10 км    3/0 верхняя 
[Ci fib]
+8.4 +1.4 61 +8  1019.5  -0.5  754  295           
00 20.05.13 300 (СЗ) 10 км    ясно 
+9.5 +4.5 71 +11  1019.3  -0.2  754  293           
03 20.05.13 280 (З) >10 км    4/0 верхняя 
[Ci fib]
+11.2 +4.7 64 +11  1018.7  -0.5  753  291  +6.8        сухая 
06 20.05.13 270 (З) >10 км    8/0 верхняя 
[Ci]
+15.4 +3.2 44 +16  1016.9  -1.6  752  286           
09 20.05.13 290 (З) >10 км    10/0 средняя 
[Ac As]
+16.5 +0.4 34 +17  1014.7  -2.1  751  285           
12 20.05.13 280 (З) >10 км    10/5 1000 м средняя 
[Sc|Ac As]
+16 +1.3 37 +16  1013.1  -1.6  750  285           
15 20.05.13 270 (З) 4{11}  >10 км    8/4 1000 м средняя, верхняя 
[Sc|Ac As|Ci]
+14.1 +4.3 52 +14  1011.4  -1.8  748  286    +17.1       
18 20.05.13 260 (З) 10 км    6/3 1000 м средняя, верхняя 
[Sc|Ac trans|Ci ing]
+11.9 +7.2 73 +12  1010.1  -1.4  747  287           
21 20.05.13 310 (СЗ) 10 км    ясно 
+10.8 +6.7 76 +12  1008.8  -1.3  746  288           
00 21.05.13 310 (СЗ) 10 км    10/10 630 м 
[Sc]
+9.5 +7.3 86 +10  1008  -0.8  746  289           
03 21.05.13 010 (С) >10 км    10/10 720 м 
[Sc]
+9.1 +5.2 77 +9  1008.8  0.8  746  290  +8.9        сухая 
06 21.05.13 350 (С) >10 км    3/3 1000 м 
[Cu hum]
+10.6 +0.1 48 +10  1010.2  1.4  747  290           
09 21.05.13 360 (С) 4-10{10}  >10 км    3/3 1000 м 
[Cu hum]
+11.6 -1.9 39 +11  1011.5  1.4  748  289           
12 21.05.13 360 (С) 3{10}  >10 км    3/3 1000 м 
[Cu hum]
+12.6 -1.6 37 +12  1012.3  1.4  749  289           
15 21.05.13 010 (С) >10 км    1/1 1000 м 
[Cu hum]
+11.6 -2.5 37 +12  1013.2  0.8  749  290    +12.9       
18 21.05.13 060 (СВ) 10 км    ясно 
+8.7 -2.6 45 +9  1014.6  1.3  750  293           
21 21.05.13 060 (СВ) 10 км    ясно 
+5.9 -1.8 58 +6  1016.3  1.5  752  297           
00 22.05.13 тихо ()   10 км    ясно 
+4.2 -2.7 61 +4  1016.7  0.3  752  299           
03 22.05.13 070 (В) >10 км    ясно 
+6.7 -2.6 51 +7  1017.5  0.9  752  296  +3.2        сухая 
06 22.05.13 290 (З) >10 км    1/0 верхняя 
[Ci fib]
+10.1 -2.4 41 +11  1017.4  0.1  752  293           
09 22.05.13 260 (З) >10 км    6/6 1230 м 
[Cu hum]
+13 -1 38 +14  1017.5  0.3  753  290           
12 22.05.13 260 (З) >10 км    8/8 600 м 
[Sc diur, vesp]
+14.8 -2 31 +16  1017.5  753  288           
15 22.05.13 110 (В) 10 км    9/9 1080 м 
[Sc]
+13.3 -0.3 39 +15  1017.4  0.1  753  289    +15.2       
18 22.05.13 070 (В) 10 км    10/0 средняя, верхняя 
[Ac As|Ci fib]
+10.4 -0.7 46 +11  1018.6  753  292           
21 22.05.13 090 (В) 10 км    9/0 средняя 
[Ac As]
+8.1 -0.7 54 +7  1019.4  0.7  754  295           
00 23.05.13 090 (В) 10 км    10/0 средняя 
[Ac As]
+7 -0.7 58 +6  1019.9  0.4  754  296           
03 23.05.13 100 (В) 10 км    10/0 средняя 
[Ac As]
+7.6 +0.7 62 +6  1020.8  0.9  755  296  +6.8        сухая 
06 23.05.13 130 (ЮВ) >10 км    1/0 средняя 
[Ac cast]
+13.5 +0.2 40 +13  1021.4  0.8  756  290           
09 23.05.13 120 (ЮВ) >10 км    6/3 1000 м верхняя 
[Cu hum|Cc]
+15.9 -0.6 32 +17  1021.4  0.2  756  288           
12 23.05.13 130 (ЮВ) >10 км    8/0 верхняя 
[Cs]
+16.8 -2.3 27 +17  1021.4  756  287           
15 23.05.13 120 (ЮВ) >10 км    8/0 верхняя 
[Cs]
+16.5 -1.1 30 +17  1020.5  -0.9  755  287    +17.6       
18 23.05.13 110 (В) 10 км    6/0 верхняя 
[Cc]
+13.8 +0.4 40 +14  1021.3  -0.9  755  290           
21 23.05.13 100 (В) 10 км    8/0 верхняя 
[Cc]
+11.3 +3.5 59 +12  1021.9  0.4  756  292           
00 24.05.13 120 (ЮВ) 10 км    10/0 средняя 
[As op]
+10.9 +3.7 61 +11  1021.7  -0.2  756  292           
03 24.05.13 140 (ЮВ) 10 км    10/0 средняя, верхняя 
[As op|Ci fib]
+13.8 +3.1 48 +14  1022.3  0.6  756  290  +10.6        сухая 
06 24.05.13 150 (ЮВ) 4{10}  >10 км    10/0 средняя 
[Ac As]
+14.7 +3.1 46 +15  1022.6  0.4  757  289           
09 24.05.13 170 (Ю) 4-10{13}  >10 км    10/8 1080 м средняя 
[Sc|Ac As]
+16.9 +1.6 36 +17  1021.7  -0.7  756  287           
12 24.05.13 150 (ЮВ) 4-10{10}  >10 км  {дождь}  10/0 
+17.6 +3.9 40 +18  1020.6  -1.1  755  285           
15 24.05.13 140 (ЮВ) 4{11}  >10 км    10/0 средняя 
[Ac As]
+17.4 +5.7 46 +18  1018.7  -1.9  754  285    +17.9       
18 24.05.13 140 (ЮВ) 10 км    6/0 средняя, верхняя 
[Ac trans|Ci sp]
+16.6 +5.1 47 +17  1017.7  -1  753  285           
21 24.05.13 150 (ЮВ) 10 км    10/0 верхняя 
[Cs]
+15.9 +5.4 50 +16  1016.8  -0.9  752  286           
00 25.05.13 150 (ЮВ) 10 км    9/0 средняя 
[Ac As]
+15.2 +6.4 56 +16  1016.6  -0.2  752  286           
03 25.05.13 140 (ЮВ) 10 км    9/4 1000 м верхняя 
[Sc diur, vesp|Cs]
+16.3 +8.1 58 +17  1016.5  0.1  752  285  +14.4        сухая 
06 25.05.13 170 (Ю) 10 км    10/0 средняя 
[Ac As]
+20.2 +10.3 53 +22  1016.2  752  280           
09 25.05.13 160 (Ю) 10 км    10/0 средняя, верхняя 
[Ac lent|Cs]
+24.7 +11.9 45 +28  1015.8  -0.3  752  276           
12 25.05.13 190 (Ю) 10 км    9/1 1000 м верхняя 
[Cu med, cong|Ci fib]
+28.4 +11 34 +31  1014.7  -0.9  751  272           
15 25.05.13 180 (Ю) 2{10}  10 км    9/0 средняя, верхняя 
[Ac lent|Ci sp]
+26 +10.9 39 +28  1014.4  -0.4  751  274    +28.6       
18 25.05.13 150 (ЮВ) 10 км    3/0 верхняя 
[Ci fib]
+21.4 +11.5 53 +25  1014.6  751  278           
21 25.05.13 140 (ЮВ) 10 км    ясно 
+18.7 +10.1 57 +21  1014.2  -0.5  750  281           
00 26.05.13 140 (ЮВ) 10 км    4/0 верхняя 
[Ci fib]
+17.8 +9.3 57 +19  1013.3  -1  750  282           
03 26.05.13 150 (ЮВ) >10 км    10/0 средняя, верхняя 
[As op|Cs]
+17.9 +9.5 58 +20  1012.7  -0.5  749  282  +17        сухая 
06 26.05.13 160 (Ю) >10 км    8/5 1000 м верхняя 
[Sc diur, vesp|Ci fib]
+23.5 +10.6 44 +25  1011.8  -0.6  749  276           
Время (UTC), дата Ветер
(°,м/с) 
Видим.   Явления Облачность Т
(°С)
Тd
(°С)
f(%) Тe
(°С)
Pmin
(гПа)
dP
(гПа)
Po
(мм)
O2
(г/м3)
Тmin Tmax R s Состояние
почвы